Philip, SD

2:36 AM MST on February 06, 2016 (GMT -0700)
Philip

Weather History for KPHP - April, 2013

Change the Weather History Date:

Saturday, April 27, 2013

  Actual Average Record
Temperature  
Mean Temperature 65 °F 50 °F  
Max Temperature 83 °F 65 °F 92 °F (1952)
Min Temperature 47 °F 37 °F 17 °F (1950)
Degree Days  
Heating Degree Days 0 15  
Month to date heating degree days 739 521  
Since 1 July heating degree days 6720 6824  
Cooling Degree Days 0 0  
Month to date cooling degree days 0 0  
Year to date cooling degree days 0 0  
Growing Degree Days 15 (Base 50)    
Moisture  
Dew Point 32 °F    
Average Humidity 38    
Maximum Humidity 61    
Minimum Humidity 14    
Precipitation  
Precipitation 0.00 in 0.09 in 1.45 in (1964)
Month to date precipitation 1.96 1.56  
Year to date precipitation 3.18 3.61  
Sea Level Pressure  
Sea Level Pressure 29.89 in    
Wind  
Wind Speed 6 mph (West)    
Max Wind Speed 22 mph    
Max Gust Speed 31 mph    
Visibility 10 miles    
Events      
T = Trace of Precipitation, MM = Missing Value Source: NWS Daily Summary

Daily Weather History Graph

Daily Weather History Graph

Search for Another Location

Airport or City:

Trip Planner

Search our weather history database for the weather conditions in past years. The results will help you decide how hot, cold, wet, or windy it might be!

Date:

Astronomy

Apr. 27, 2013 Rise Set
Actual Time 5:43 AM MDT 7:45 PM MDT
Civil Twilight 5:12 AM MDT 8:16 PM MDT
Nautical Twilight 4:33 AM MDT 8:55 PM MDT
Astronomical Twilight 3:51 AM MDT 9:37 PM MDT
Moon 10:20 PM MDT (4/27) 7:00 AM MDT (4/27)
Length of Visible Light 15h 04m
Length of Day
14h 02m
Waning Gibbous, 95% of the Moon is Illuminated
Apr 27
Waning Gibbous
May 2
Last Quarter
May 9
New
May 17
First Quarter
May 24
Full

Hourly Weather History & Observations

Time (MDT) Temp. Dew Point Humidity Pressure Visibility Wind Dir Wind Speed Gust Speed Precip Events Conditions
12:55 AM 54.0 °F 30.9 °F 41% 30.05 in 10.0 mi South 16.1 mph - N/A   Clear
1:55 AM 50.0 °F 30.9 °F 48% 30.05 in 10.0 mi South 6.9 mph - N/A   Clear
2:55 AM 48.9 °F 30.0 °F 48% 30.04 in 10.0 mi Calm Calm - N/A   Clear
3:55 AM 51.1 °F 30.0 °F 44% 30.02 in 10.0 mi SW 5.8 mph - N/A   Clear
4:55 AM 51.1 °F 30.0 °F 44% 30.00 in 10.0 mi SSW 8.1 mph - N/A   Clear
5:55 AM 48.0 °F 30.0 °F 50% 29.99 in 10.0 mi SSW 6.9 mph - N/A   Clear
6:55 AM 51.1 °F 33.1 °F 50% 29.99 in 10.0 mi Calm Calm - N/A   Clear
7:55 AM 55.0 °F 35.1 °F 47% 29.98 in 10.0 mi Calm Calm - N/A   Clear
8:55 AM 61.0 °F 34.0 °F 36% 29.96 in 10.0 mi SW 8.1 mph - N/A   Clear
9:55 AM 68.0 °F 34.0 °F 28% 29.95 in 10.0 mi WSW 10.4 mph - N/A   Clear
10:55 AM 77.0 °F 34.0 °F 21% 29.93 in 10.0 mi WNW 6.9 mph - N/A   Clear
11:55 AM 79.0 °F 27.0 °F 15% 29.91 in 10.0 mi NNW 4.6 mph 16.1 mph N/A   Clear
12:55 PM 81.0 °F 28.0 °F 14% 29.87 in 10.0 mi West 9.2 mph 18.4 mph N/A   Clear
1:55 PM 82.0 °F 30.0 °F 15% 29.85 in 10.0 mi WNW 8.1 mph - N/A   Clear
2:55 PM 82.0 °F 32.0 °F 16% 29.82 in 10.0 mi NW 16.1 mph 19.6 mph N/A   Clear
3:55 PM 82.0 °F 28.9 °F 14% 29.81 in 10.0 mi WNW 11.5 mph 23.0 mph N/A   Clear
4:55 PM 82.0 °F 28.9 °F 14% 29.79 in 10.0 mi WNW 17.3 mph - N/A   Clear
5:55 PM 81.0 °F 28.0 °F 14% 29.78 in 10.0 mi NW 13.8 mph - N/A   Clear
6:55 PM 75.9 °F 32.0 °F 20% 29.79 in 10.0 mi NW 6.9 mph - N/A   Clear
7:55 PM 66.9 °F 32.0 °F 27% 29.79 in 10.0 mi Calm Calm - N/A   Clear
8:55 PM 61.0 °F 32.0 °F 34% 29.78 in 10.0 mi Calm Calm - N/A   Clear
9:55 PM 55.9 °F 33.1 °F 42% 29.76 in 10.0 mi Calm Calm - N/A   Clear
10:55 PM 55.9 °F 35.1 °F 45% 29.74 in 10.0 mi Calm Calm - N/A   Clear
11:55 PM 50.0 °F 37.9 °F 63% 29.75 in 10.0 mi WSW 4.6 mph - N/A   Clear